sat.trackr.live / text

‹ back to catalog

STARLINK-4131

NORAD 53246 · 2022-086E

PAYLOAD ACTIVE UNKNOWN

§ Identity

Operator
Country
US
Launch date
2022-07-24
Launch site
AFETR
Launch vehicle
Mass (kg)
RCS (m²)

Purposes: comms

External: N2YO · Heavens-Above · Gunter

§ Orbital elements

Epoch: 2026-09-20T00:52:38.098848Z

Period
94.01 min
Inclination
53.1597°
Eccentricity
0.0001120
Mean motion
15.31695360 rev/d
Perigee alt
470.0 km
Apogee alt
471.5 km
Semi-major
6,848.9 km
B*
1.2910e-5
RAAN
38.9906°
Arg perigee
80.0933°
Mean anomaly
280.0194°
Rev number
22,964

§ Raw data

STARLINK-41311 53246U 22086E   26263.03655207  .00000036  00000+0  12910-4 0  99902 53246  53.1597  38.9906 0001120  80.0933 280.0194 15.31695360229640

JSON: /api/v1/satellites/53246 · /tle

For live sub-satellite position, see the globe view (requires WebGL).

§ Visibility from observer

Set your observer location to see the next 7 days of passes ≥ 10°. The values pass through the URL so the page stays shareable.

No JS? Fill the form by hand. The geolocation button needs JavaScript.